www.pogodaiklimat.ru
ПОГОДА в Оха
Время
(UTC), дата
12 10.10
15 10.10
18 10.10
21 10.10
00 11.10
03 11.10
06 11.10
09 11.10
12 11.10
15 11.10
18 11.10
21 11.10
00 12.10
03 12.10
06 12.10
09 12.10
12 12.10
15 12.10
18 12.10
21 12.10
00 13.10
03 13.10
06 13.10
09 13.10
12 13.10
15 13.10
18 13.10
21 13.10
00 14.10
03 14.10
06 14.10
09 14.10
12 14.10
15 14.10
18 14.10
21 14.10
00 15.10
03 15.10
06 15.10
09 15.10
12 15.10
15 15.10
18 15.10
21 15.10
00 16.10
03 16.10
06 16.10
09 16.10
12 16.10
15 16.10
18 16.10
21 16.10
00 17.10
03 17.10
06 17.10
Ветер
(напр.,м/с)
Видим. Явления Облачность Т
(С)
Тd
(С)
f
(%)
Тe
(С)
Тes
(С)
Комфортность P
(гПа)
Po
(гПа)
Тmin
(С)
Tmax
(С)
R
(мм)
R24
(мм)
S
(см)
Ю 4-6
{6}
20 км 8/0
[Ac trans Ci sp]
+7.7 +6.0 89 +4 +4 по сезону 1003.0 998.4
ЮЗ 5-8
{9}
20 км 5/0
[Ci fib]
+10.6 +7.5 81 +8 +8 тепло 1004.0 999.5
З 3-4
{11}
20 км 8/0
[Ci sp]
+7.1 +5.2 88 +4 +4 по сезону 1005.6 1001.0
З 2-4
{7}
20 км слаб. ливневой дождь 9/9 300 м
[Cb cap]
+4.1 +3.1 93 +1 +1 по сезону 1007.7 1003.0 +4.1 2
СЗ 2-4
{4}
20 км {ливн. осадки} 3/3 600 м
[Cb cap]
+7.2 +3.3 76 +5 +7 тепло 1009.0 1004.4 +4.0
З 3-5
{6}
20 км 8/8 720 м
[Cb cap]
+8.1 +1.9 65 +6 +7 тепло 1009.9 1005.3
ЮЗ 3-4
{6}
20 км {ливн. осадки} 3/3 600 м
[Cb cap]
+9.1 -0.5 51 +7 +8 тепло 1010.6 1006.0
В 2-2
{4}
20 км 8/8 720 м
[Cb cap]
+3.6 +1.4 86 +1 +1 по сезону 1011.8 1007.0 +9.4 0.0
СЗ 2-5
{8}
20 км 10/10 270 м
[Cb cap]
+2.8 +1.9 94 -1 -1 по сезону 1011.2 1006.5
З 4-5
{5}
20 км слаб. ливневой дождь 8/8 420 м
[Cb cap]
+1.3 +1.0 98 -4 -4 прохладно 1010.2 1005.4
З 5-11
{11}
4000 м слаб. ливневой снег 10/10 120 м
[Cb cap]
+1.1 +0.2 94 -5 -5 холодно 1011.3 1006.6
ЮЗ 5-8
{11}
20 км {ливн. осадки} 4/4 300 м
[Cb cap]
+0.4 -1.9 85 -6 -6 холодно 1011.7 1006.9 -0.5 3 1
З 8-15
{15}
20 км в посл. час ливневой снег 8/8 400 м
[Cb cap]
+1.9 -3.9 65 -5 -5 холодно 1012.4 1007.6
З 9-15
{17}
4000 м слаб. ливневой снег 9/9 300 м
[Cb cap]
+1.4 -3.6 69 -6 -6 холодно 1013.5 1008.7
З 7-15
{16}
20 км {ливн. осадки} 9/9 450 м
[Cb cap]
+2.5 -5.9 54 -3 -3 прохладно 1014.3 1009.5
З 5-10
{18}
20 км 8/8 300 м
[Cb cap]
+2.5 -5.9 54 -2 -2 по сезону 1015.7 1010.9 +3.1 1
ЮЗ 3-4
{10}
20 км 4/4 300 м
[Cb cap]
+0.1 -7.0 59 -4 -4 прохладно 1015.5 1010.7
ЮЗ 5-6
{7}
20 км 4/4 300 м
[Cb cap]
-0.3 -9.0 52 -6 -6 холодно 1015.8 1011.0
ЮЗ 5-8
{8}
20 км 3/3 300 м
[Cb cap]
-1.0 -8.5 57 -7 -7 холодно 1015.5 1010.7
ЮЗ 4-5
{8}
20 км 3/3 300 м
[Cb cap]
-2.2 -7.6 66 -8 -8 очень
холодно
1015.4 1010.5 -2.2
З 7-12
{12}
20 км 8/8 480 м
[Cb cap]
+1.7 -5.9 57 -4 -4 прохладно 1014.6 1009.8 -2.3
З 8-13
{15}
20 км 9/9 480 м
[Cb cap]
+2.8 -5.3 55 -3 -3 прохладно 1013.7 1009.0
З 9-15
{15}
20 км {ливн. осадки} 9/9 400 м
[Cb cap]
+2.0 -6.8 52 -5 -5 холодно 1013.4 1008.6
З 8-16
{16}
4000 м слаб. ливневой снег 10/10 210 м
[Cb cap]
+0.9 -5.9 60 -6 -6 холодно 1013.8 1009.0 +2.9
З 4-7
{16}
20 км {ливн. осадки} 9/9 300 м
[Cb cap]
+1.7 -6.4 55 -3 -3 прохладно 1012.8 1008.1
З 4-7
{12}
20 км в посл. час ливневой снег 9/9 300 м
[Cb cap]
-0.7 -3.1 84 -6 -6 холодно 1011.8 1007.0
З 4-7
{14}
20 км {ливн. осадки} 8/8 450 м
[Cb cap]
-1.1 -3.1 86 -7 -7 холодно 1011.0 1006.2
ЮЗ 5-10
{15}
20 км {ливн. осадки} 8/8 400 м
[Cb cap]
-0.8 -5.3 72 -7 -7 холодно 1010.2 1005.4 -1.6 2 1
З 10-15
{15}
20 км {ливн. осадки} 8/8 420 м
[Cb cap]
+1.1 -6.5 57 -6 -6 холодно 1009.8 1005.1
З 10-14
{16}
20 км 6/6 360 м
[Cb cap]
+1.1 -6.1 59 -6 -6 холодно 1009.0 1004.3
З 8-11
{15}
20 км в посл. час ливневой снег 6/6 400 м
[Cb cap]
+1.2 -6.0 59 -5 -5 холодно 1008.8 1004.0
З 7-11
{15}
20 км {ливн. осадки} 6/6 450 м
[Cb cap]
-0.6 -6.4 65 -7 -7 холодно 1009.2 1004.4 +2.1 0.3
ЮЗ 7-12
{13}
20 км {ливн. осадки} 6/6 420 м
[Cb cap]
-0.0 -7.5 57 -7 -7 холодно 1008.4 1003.6
ЮЗ 8-12
{14}
20 км в посл. час ливневой снег 8/8 400 м
[Cb cap]
-0.8 -4.6 75 -8 -8 очень
холодно
1006.8 1002.1
З 5-7
{14}
4000 м слаб. ливневой снег 9/9 270 м
[Cb cap]
-1.0 -1.4 97 -8 -8 очень
холодно
1006.5 1001.7
З 3-5
{10}
20 км в посл. час крупа {ливн. осадки} 9/9 300 м
[Cb cap]
-0.1 -3.8 76 -5 -5 холодно 1006.6 1001.8 -1.6 2 5
З 4-8
{12}
20 км в посл. час ливневой снег 9/9 330 м
[Cb cap]
+1.1 -2.2 79 -4 -4 прохладно 1007.2 1002.4
З 7-10
{15}
4000 м слаб. ливневой снег 10/10 210 м
[Cb cap]
+0.3 -0.0 98 -7 -7 холодно 1007.5 1002.7
З 7-11
{16}
4000 м слаб. ливневой снег 10/10 330 м
[Cb cap]
+1.5 -0.7 85 -5 -5 холодно 1008.3 1003.6
З 4-9
{11}
4000 м слаб. ливневой снег 10/10 240 м
[Cb cap]
+2.4 -2.2 72 -2 -2 по сезону 1009.5 1004.7 +2.4 3
ЮЗ 4-6
{9}
20 км {ливн. осадки} 6/6 420 м
[Cb cap]
+2.0 -2.7 71 -3 -3 прохладно 1010.0 1005.3
ЮЗ 3-4
{7}
20 км 4/4 600 м
[Cb cap]
+1.1 -2.7 76 -3 -3 прохладно 1009.8 1005.0
ЮЗ 2-3
{5}
20 км 8/8 480 м
[Cb cap]
-0.8 -3.3 83 -5 -5 холодно 1010.1 1005.3
ЮЗ 1-2
{3}
20 км 8/8 400 м
[Cb cap]
+0.1 -3.1 79 -2 -2 по сезону 1010.7 1005.9 -1.2 0.0 2
ЮЗ 2-3
{3}
20 км 9/9 660 м
[Cb cap]
+1.7 -1.7 78 -1 -1 по сезону 1011.6 1006.8
СЗ 2-4
{4}
20 км {ливн. осадки} 9/9 720 м
[Cb cap]
+3.8 -2.2 65 +1 +2 по сезону 1011.6 1006.9
СЗ 2-3
{9}
20 км в посл. час ливневой снег 9/9 450 м
[Cb cap]
+2.5 -0.0 84 -1 -1 по сезону 1012.3 1007.6
З 2-3
{8}
20 км {ливн. осадки} 9/9 420 м
[Cb cap]
+0.9 +0.1 94 -3 -3 прохладно 1013.8 1009.0 +4.0 0.4
З 3-3
{4}
20 км {ливн. осадки} 5/5 300 м
[Cb cap]
0.0 -1.8 88 -5 -5 холодно 1014.5 1009.7
З 2-3
{4}
20 км 9/3 300 м
[Cb cap Ci sp]
+1.1 -2.3 78 -2 -2 по сезону 1014.9 1010.1
СЗ 1-2
{3}
20 км 9/3 300 м
[Cb cap Ac trans Ci sp]
+0.1 -2.4 83 -2 -2 по сезону 1015.2 1010.4
З 1-2
{2}
20 км 8/8 450 м
[Cb cap]
+0.4 -2.2 83 -2 -2 по сезону 1015.8 1011.0 -0.5 1
СЗ 3-6
{6}
20 км 9/9 500 м
[Cb cap]
+2.8 -1.8 72 -1 -1 по сезону 1016.9 1012.1
СЗ 5-10
{10}
20 км 9/9 660 м
[Cb cap]
+3.7 -3.4 60 -1 -1 по сезону 1017.1 1012.3
СЗ 5-9
{12}
20 км {ливн. осадки} 8/8 750 м
[Cb cap]
+4.3 -3.1 59 -0 0 по сезону 1017.4 1012.7
Местоположение метеостанции Оха (Сахалинская область, Россия): широта 53.50 долгота 142.90 высота над уровнем моря 37 м.
В архиве по умолчанию представлена погода в Оха за последнюю неделю. Архивные данные за месяц целиком и за предыдущие месяцы, начиная с января 2011 года, Вы можете получить, выбрав интересующий диапазон дат из раскрывающегося списка и нажав кнопку "Найти!".
*Определитесь, кто Вы:
Внимание! Время в таблицах - всемирное. Для получения местного времени необходимо прибавить поправку, которая равна 11 ч.
Смотрите также архив погоды в соседних городах и на ближайших метеорологических станциях:
Партнеры нашего сайта:      
Пояснения к столбцам:
  • Ветер - указаны скорость ветра в м/с - средняя за 10 мин, порывы в срок и между сроками (в фигурных скобках) и направление, откуда дует ветер: С - северный,
  • СВ - северо-восточный, В - восточный, ЮВ - юго-восточный, Ю - южный, ЮЗ - юго-западный, З - западный, СЗ - северо-западный.
  • Видимость - горизонтальная дальность видимости в метрах или километрах. При видимости от 1 до 10 км при отсутствии осадков обычно наблюдается дымка, при ухудшении видимости до 1 км и менее - туман. В сухую погоду видимость может ухудшаться дымом, пылью или мглою.
  • Явления - указаны атмосферные явления, наблюдавшиеся в срок или в последний час перед сроком; фигурными скобками обозначены явления, наблюдавшиеся между сроками (за 1-3 часа до срока); квадратными скобками обозначены град или гололедные отложения с указанием их диаметра в мм.
  • Облачность - указаны через наклонную черту общая и нижняя облачность в баллах и высота нижней границы облаков в метрах; квадратными скобками обозначены формы облаков: Ci - перистые, Cs - перисто-слоистые, Cc - перисто-кучевые, Ac - высококучевые, As - высокослоистые, Sc - слоисто-кучевые, Ns - слоисто-дождевые, Cu - кучевые, Cb - кучево-дождевые. Подробнее классификацию облаков см. в Атласе облаков (PDF).
  • T - Температура воздуха - температура, измеренная на высоте 2 м над землей.
  • Td - Температура точки росы - температура, при понижении до которой содержащийся в воздухе водяной пар достигнет насыщения.
  • f - Относительная влажность воздуха - влажноcть воздуха, измеренная на высоте 2 м над землей.
  • Te - Эффективная температура - температура, которую ощущает одетый по сезону человек в тени. Характеристика душности погоды. При расчете учитывается влияние влажности воздуха и скорости ветра на теплоощущения человека.
  • Tes - Эффективная температура на солнце - температура, которую ощущает человек, с поправкой на солнечный нагрев. Характеристика знойности погоды. Зависит от высоты солнца над горизонтом, облачности и скорости ветра. Ночью, в пасмурную погоду, а также при ветре 12 м/с и более поправка равна нулю.
  • P - Атмосферное давление - приведенное к уровню моря атмосферное давление.
  • Po - Атмосферное давление - измеренное на уровне метеостанции атмосферное давление.
  • Tmin - Минимальная температура - минимум температуры воздуха на высоте 2 м над землей.
  • Tmax - Максимальная температура - максимум температуры воздуха на высоте 2 м над землей.
  • R - Количество осадков - Количество выпавших осадков за период времени, мм. При наведении курсора мыши на число - период времени, за который выпало указанное количество осадков.
  • R24 - Количество осадков - Количество выпавших осадков за 24 часа, мм.
  • S - Снежный покров - Высота снежного покрова, см. При наведении курсора мыши на число - состояние снежного покрова и степень покрытия местности в баллах.